Edinburgh Airport, United Kingdom

8:15 AM BST on August 23, 2017 (GMT +0100)
Edinburgh Airport

Weather History for EGPH - March, 2014

Change the Weather History Date:

Wednesday, March 12, 2014

  Actual Average Record
Temperature  
Mean Temperature 40 °F -  
Max Temperature 55 °F 50 °F 55 °F (2014)
Min Temperature 26 °F 36 °F 17 °F (2013)
Degree Days  
Heating Degree Days 24    
Moisture  
Dew Point 33 °F    
Average Humidity 80    
Maximum Humidity 100    
Minimum Humidity 44    
Precipitation  
Precipitation 0.00 in 0.06 in - ()
Sea Level Pressure  
Sea Level Pressure 30.48 in    
Wind  
Wind Speed 3 mph ()    
Max Wind Speed 10 mph    
Max Gust Speed -    
Visibility 4.1 miles    
Events Fog    
Averages and records for this station are not official NWS values.
T = Trace of Precipitation, MM = Missing Value Source: Averaged Metar Reports

Daily Weather History Graph

Daily Weather History Graph

Search for Another Location

Airport or City:

Trip Planner

Search our weather history database for the weather conditions in past years. The results will help you decide how hot, cold, wet, or windy it might be!

Date:

Astronomy

Mar. 12, 2014 Rise Set
Actual Time 6:36 AM GMT 6:10 PM GMT
Civil Twilight 6:00 AM GMT 6:47 PM GMT
Nautical Twilight 5:16 AM GMT 7:30 PM GMT
Astronomical Twilight 4:32 AM GMT 8:15 PM GMT
Moon 1:55 PM GMT (3/12) 4:34 AM GMT (3/12)
Length of Visible Light 12h 47m
Length of Day
11h 33m
Waxing Gibbous, 84% of the Moon is Illuminated
Mar 12
Waxing Gibbous
Mar 16
Full
Mar 24
Last Quarter
Mar 30
New
Apr 7
First Quarter

Hourly Weather History & Observations

Time (GMT) Temp. Windchill Dew Point Humidity Pressure Visibility Wind Dir Wind Speed Gust Speed Precip Events Conditions
12:20 AM 30.2 °F - 28.4 °F 93% 30.57 in 0.2 mi Calm Calm - N/A Fog Light Freezing Fog
12:50 AM 30.2 °F - 30.2 °F 100% 30.57 in - Calm Calm - N/A   Clear
1:20 AM 30.2 °F - 28.4 °F 93% 30.57 in - South 2.3 mph - N/A   Clear
1:50 AM 28.4 °F - 28.4 °F 100% 30.57 in - NW 2.3 mph - N/A   Clear
2:20 AM 28.4 °F - 28.4 °F 100% 30.57 in - SSW 2.3 mph - N/A   Clear
2:50 AM 26.6 °F - 26.6 °F 100% 30.54 in - Calm Calm - N/A   Clear
3:20 AM 28.4 °F - 26.6 °F 93% 30.54 in - Calm Calm - N/A   Clear
3:50 AM 28.4 °F - 26.6 °F 93% 30.54 in - NW 2.3 mph - N/A   Clear
4:20 AM 26.6 °F - 24.8 °F 93% 30.54 in - South 2.3 mph - N/A   Clear
4:50 AM 26.6 °F - 24.8 °F 93% 30.54 in - NNW 2.3 mph - N/A   Clear
5:20 AM 26.6 °F 22.6 °F 24.8 °F 93% 30.54 in - SSE 3.5 mph - N/A   Clear
5:50 AM 26.6 °F - 24.8 °F 93% 30.54 in - Calm Calm - N/A   Clear
6:20 AM 26.6 °F - 24.8 °F 93% 30.54 in - Variable 2.3 mph - N/A   Clear
6:50 AM 26.6 °F 22.6 °F 24.8 °F 93% 30.54 in - SSW 3.5 mph - N/A   Clear
7:20 AM 28.4 °F - 26.6 °F 93% 30.54 in - West 2.3 mph - N/A   Clear
7:50 AM 30.2 °F - 28.4 °F 93% 30.54 in - Calm Calm - N/A   Clear
8:20 AM 33.8 °F - 30.2 °F 87% 30.54 in - Calm Calm - N/A   Clear
8:50 AM 35.6 °F - 32.0 °F 87% 30.54 in - WNW 2.3 mph - N/A   Clear
9:20 AM 41.0 °F - 33.8 °F 76% 30.51 in - Calm Calm - N/A   Clear
9:50 AM 42.8 °F - 35.6 °F 76% 30.51 in - Calm Calm - N/A   Clear
10:20 AM 44.6 °F - 35.6 °F 71% 30.51 in - Calm Calm - N/A   Clear
10:50 AM 46.4 °F 43.5 °F 37.4 °F 71% 30.51 in - North 5.8 mph - N/A   Clear
11:20 AM 46.4 °F 44.3 °F 37.4 °F 71% 30.51 in - NNW 4.6 mph - N/A   Clear
11:50 AM 48.2 °F - 35.6 °F 62% 30.48 in - NNW 5.8 mph - N/A   Clear
12:20 PM 51.8 °F - 35.6 °F 54% 30.48 in - NW 5.8 mph - N/A   Clear
12:50 PM 55.4 °F - 33.8 °F 44% 30.48 in - WSW 9.2 mph - N/A   Clear
1:20 PM 55.4 °F - 35.6 °F 47% 30.45 in - SW 10.4 mph - N/A   Clear
1:50 PM 55.4 °F - 35.6 °F 47% 30.45 in - WSW 10.4 mph - N/A   Clear
2:20 PM 55.4 °F - 35.6 °F 47% 30.42 in - Variable 3.5 mph - N/A   Clear
2:50 PM 55.4 °F - 37.4 °F 51% 30.42 in 6.2 mi Variable 4.6 mph - N/A   Unknown
3:20 PM 55.4 °F - 37.4 °F 51% 30.42 in - WSW 10.4 mph - N/A   Clear
3:50 PM 55.4 °F - 37.4 °F 51% 30.42 in - WNW 8.1 mph - N/A   Clear
4:20 PM 53.6 °F - 39.2 °F 58% 30.39 in 5.0 mi WNW 8.1 mph - N/A   Unknown
4:50 PM 51.8 °F - 39.2 °F 62% 30.39 in - WNW 8.1 mph - N/A   Clear
5:20 PM 51.8 °F - 39.2 °F 62% 30.39 in - West 8.1 mph - N/A   Clear
5:50 PM 48.2 °F - 39.2 °F 71% 30.39 in - West 5.8 mph - N/A   Clear
6:20 PM 44.6 °F 41.4 °F 37.4 °F 76% 30.42 in - WSW 5.8 mph - N/A   Clear
6:50 PM 42.8 °F 38.6 °F 37.4 °F 81% 30.42 in 5.0 mi WSW 6.9 mph - N/A   Unknown
7:20 PM 41.0 °F 35.8 °F 35.6 °F 81% 30.42 in 5.6 mi WSW 8.1 mph - N/A   Unknown
7:50 PM 41.0 °F 36.4 °F 37.4 °F 87% 30.42 in 5.0 mi SW 6.9 mph - N/A   Unknown
8:20 PM 37.4 °F 32.8 °F 35.6 °F 93% 30.42 in 5.0 mi WSW 5.8 mph - N/A   Unknown
8:50 PM 39.2 °F 35.9 °F 37.4 °F 93% 30.42 in 4.3 mi West 4.6 mph - N/A   Unknown
9:20 PM 39.2 °F 35.0 °F 35.6 °F 87% 30.42 in 4.3 mi WSW 5.8 mph - N/A   Unknown
9:50 PM 39.2 °F 33.0 °F 37.4 °F 93% 30.42 in 3.7 mi WSW 9.2 mph - N/A   Unknown
10:20 PM 37.4 °F 32.1 °F 35.6 °F 93% 30.42 in 3.1 mi WSW 6.9 mph - N/A   Haze
10:50 PM 37.4 °F 31.4 °F 35.6 °F 93% 30.39 in 3.7 mi WSW 8.1 mph - N/A   Unknown
11:20 PM 41.0 °F 38.0 °F 37.4 °F 87% 30.39 in 3.7 mi West 4.6 mph - N/A   Unknown
11:50 PM 39.2 °F 33.0 °F 37.4 °F 93% 30.39 in 3.1 mi WSW 9.2 mph - N/A   Haze